STARLINK-1084 (44915 NORAD) Tracking and Keplerian Element Data

This shows tracking and keplerian element data for the satellite.

Feedback or suggestion? Click here.




ElementValue
Catalog44915
NameSTARLINK-1084
Epoch Orbit716
Epoch Day53.25001157
Epoch Year2020
RAAN175.896
Inclination52.9934
Eccentricity0.0001387
Argument of Perigee84.8326
Mean Anonmoly154.7928
Mean Motion15.05524436
Decay Rate-0.00050403
L11 44915U 20001B 20053.25001157 -.00050403 00000-0 -34699-2 0 9994
L22 44915 52.9934 175.8960 0001387 84.8326 154.7928 15.05524436 7168

Live tracking and technical data element details for STARLINK-1084 (NORAD 44915). STARLINK-1084 can be tracked NOW for your location showing map with azimuth and elevation plus other details from your city location.

Track the satellite on the map from your city or location and see movement details for azimuth, elevation, latitude, longitude, range, height, and movement on the map or in text.







IsCatalogInMostPopularTable: catalog: 44915, numindb: 12
Update: records affected: 1



GetName: 44915 STARLINK-1084

Hit Count: updated at: Mon, 24 Feb 2020 17:38:17 GMT